EW4883 Weather Reports


Display with metric or nautical units.
time (UTC)temp
F
wind
direction
speed
MPH
gust
MPH
rain 1hr
in
rain 24hr
in
rain mn
in
humidity
%
barometer
mb
20260506204558 76 352 4.0 11.0 0.00 0.00 0.00 23 1015.2
20260506204053 76 311 3.0 9.0 0.00 0.00 0.00 23 1015.1
20260506203552 75 352 3.0 9.0 0.00 0.00 0.00 24 1015.2
20260506203051 75 0 1.0 9.0 0.00 0.00 0.00 23 1015.2
20260506202554 74 271 4.0 9.0 0.00 0.00 0.00 23 1015.3
20260506202055 74 0 2.0 6.0 0.00 0.00 0.00 23 1015.3
20260506201556 74 59 0.0 7.0 0.00 0.00 0.00 25 1015.5
20260506201051 74 53 3.0 9.0 0.00 0.00 0.00 24 1015.5
20260506200556 74 343 1.0 9.0 0.00 0.00 0.00 24 1015.7
20260506200109 74 0 3.0 10.0 0.00 0.00 0.00 25 1015.7
20260506195556 74 342 4.0 10.0 0.00 0.01 0.00 25 1015.7
20260506195053 74 254 2.0 9.0 0.00 0.01 0.00 27 1015.8
20260506194623 73 315 3.0 9.0 0.00 0.01 0.00 27 1015.9
20260506194053 74 306 3.0 10.0 0.00 0.01 0.00 26 1015.9
20260506193552 74 302 3.0 10.0 0.00 0.01 0.00 27 1015.9
20260506193057 74 84 0.0 7.0 0.00 0.01 0.00 28 1015.9
20260506192552 73 84 1.0 7.0 0.00 0.01 0.00 27 1016.1
20260506192056 73 146 2.0 5.0 0.00 0.01 0.00 29 1016.2
20260506191600 72 0 1.0 7.0 0.00 0.01 0.00 29 1016.3
20260506191055 72 224 3.0 8.0 0.00 0.01 0.00 29 1016.3
20260506190552 72 279 3.0 8.0 0.00 0.01 0.00 30 1016.3
20260506185552 71 305 2.0 12.0 0.00 0.01 0.00 31 1016.4
20260506185056 71 221 1.0 12.0 0.00 0.01 0.00 30 1016.3
20260506184610 71 267 3.0 12.0 0.00 0.01 0.00 31 1016.4
20260506184052 71 265 2.0 11.0 0.00 0.01 0.00 31 1016.5
20260506183556 71 109 4.0 11.0 0.00 0.01 0.00 30 1016.5
20260506183104 71 279 2.0 10.0 0.00 0.01 0.00 30 1016.6
20260506182552 71 24 3.0 10.0 0.00 0.01 0.00 31 1016.6
20260506182052 71 316 4.0 8.0 0.00 0.01 0.00 31 1016.7
20260506181601 70 33 0.0 5.0 0.00 0.01 0.00 33 1016.8
20260506181052 70 36 1.0 8.0 0.00 0.01 0.00 32 1016.9
20260506180555 70 325 1.0 9.0 0.00 0.01 0.00 32 1016.9
20260506180056 69 0 1.0 9.0 0.00 0.01 0.00 34 1017.0
20260506175552 69 9 3.0 8.0 0.00 0.01 0.00 32 1017.0
20260506175052 69 286 1.0 9.0 0.00 0.01 0.00 34 1017.1
20260506174604 68 0 1.0 9.0 0.00 0.01 0.00 34 1017.0
20260506174052 68 85 4.0 9.0 0.00 0.01 0.00 33 1017.1
20260506173556 69 88 2.0 8.0 0.00 0.01 0.00 34 1017.1
20260506173112 68 240 2.0 8.0 0.00 0.01 0.00 34 1017.0
20260506172551 68 324 2.0 9.0 0.00 0.01 0.00 35 1017.1
20260506172052 68 271 2.0 9.0 0.00 0.01 0.00 35 1016.9
20260506171554 68 267 1.0 9.0 0.00 0.01 0.00 36 1017.0
20260506171052 68 5 2.0 8.0 0.00 0.01 0.00 36 1017.0
20260506170551 67 42 1.0 10.0 0.00 0.01 0.00 37 1017.0
20260506170057 67 43 4.0 10.0 0.00 0.01 0.00 37 1017.0
20260506165552 67 36 3.0 9.0 0.00 0.01 0.00 38 1017.0
20260506165052 67 44 3.0 8.0 0.00 0.01 0.00 36 1016.9
20260506164557 67 48 1.0 5.0 0.00 0.01 0.00 38 1016.9
20260506164052 67 0 2.0 5.0 0.00 0.01 0.00 39 1016.9
20260506163552 66 352 1.0 7.0 0.00 0.01 0.00 38 1016.9
20260506163055 66 292 2.0 7.0 0.00 0.01 0.00 41 1016.8
20260506162552 66 287 2.0 5.0 0.00 0.01 0.00 42 1016.8
20260506162054 65 0 2.0 5.0 0.00 0.01 0.00 42 1016.7
20260506161604 65 26 1.0 9.0 0.00 0.01 0.00 42 1016.7
20260506161053 65 0 3.0 9.0 0.00 0.01 0.00 43 1016.7
20260506160552 65 113 2.0 7.0 0.00 0.01 0.00 45 1016.7
20260506160057 65 0 2.0 7.0 0.00 0.01 0.00 44 1016.7
20260506155552 65 61 2.0 6.0 0.00 0.01 0.00 46 1016.7
20260506155055 64 69 0.0 3.0 0.00 0.01 0.00 48 1016.7
20260506154557 64 0 0.0 5.0 0.00 0.01 0.00 50 1016.6
20260506154049 63 327 1.0 5.0 0.00 0.01 0.00 48 1016.6
20260506153553 63 48 3.0 5.0 0.00 0.01 0.00 47 1016.7
20260506153058 63 42 0.0 5.0 0.00 0.01 0.00 49 1016.7
20260506152552 63 42 1.0 5.0 0.00 0.01 0.00 49 1016.7
20260506152052 63 43 1.0 4.0 0.00 0.01 0.00 51 1016.7
20260506151607 63 44 2.0 5.0 0.00 0.01 0.00 52 1016.7
20260506151049 62 0 1.0 5.0 0.00 0.01 0.00 52 1016.6
20260506150549 62 47 3.0 5.0 0.00 0.01 0.00 52 1016.6
20260506150054 62 242 1.0 3.0 0.00 0.01 0.00 53 1016.6
20260506145552 62 0 1.0 3.0 0.00 0.01 0.00 52 1016.5
20260506145052 62 244 0.0 4.0 0.00 0.01 0.00 54 1016.4
20260506144602 62 0 1.0 4.0 0.00 0.01 0.00 53 1016.4
20260506144049 62 244 0.0 4.0 0.00 0.01 0.00 55 1016.4
20260506143550 61 0 0.0 1.0 0.00 0.01 0.00 56 1016.4
20260506143103 61 0 0.0 3.0 0.00 0.01 0.00 57 1016.5
20260506142553 61 0 0.0 3.0 0.00 0.01 0.00 57 1016.6
20260506142049 61 244 1.0 3.0 0.00 0.01 0.00 56 1016.5
20260506141553 61 0 0.0 3.0 0.00 0.01 0.00 57 1016.5
20260506141050 61 0 0.0 3.0 0.00 0.01 0.00 56 1016.5
20260506140555 60 0 0.0 3.0 0.00 0.01 0.00 58 1016.4
20260506135549 60 0 0.0 0.0 0.00 0.01 0.00 58 1016.3
20260506135049 60 0 0.0 0.0 0.00 0.01 0.00 58 1016.3
20260506134553 60 0 0.0 0.0 0.00 0.01 0.00 59 1016.3
20260506134049 59 0 0.0 0.0 0.00 0.01 0.00 62 1016.2
20260506133549 58 0 0.0 0.0 0.00 0.01 0.00 68 1016.2
20260506133053 56 0 0.0 0.0 0.00 0.01 0.00 71 1016.3
20260506132549 55 0 0.0 0.0 0.00 0.01 0.00 75 1016.2
20260506132052 54 0 0.0 0.0 0.00 0.01 0.00 76 1016.2
20260506131555 53 0 0.0 0.0 0.00 0.01 0.00 77 1016.0
20260506131052 53 0 0.0 0.0 0.00 0.01 0.00 79 1016.0
20260506130553 52 0 0.0 0.0 0.00 0.01 0.00 79 1016.0
20260506130111 52 0 0.0 0.0 0.00 0.01 0.00 79 1015.9
20260506125555 51 0 0.0 0.0 0.00 0.01 0.00 79 1015.9
20260506125052 51 0 0.0 0.0 0.00 0.01 0.00 79 1015.9
20260506124553 51 0 0.0 0.0 0.00 0.01 0.00 79 1015.8
20260506124052 51 0 0.0 0.0 0.00 0.01 0.00 79 1015.9
20260506123549 51 0 0.0 0.0 0.00 0.01 0.00 79 1015.8
20260506123052 51 0 0.0 0.0 0.00 0.01 0.00 78 1015.8
20260506122550 51 0 0.0 0.0 0.00 0.01 0.00 78 1015.8
20260506122049 51 0 0.0 0.0 0.00 0.01 0.00 78 1015.8
20260506121553 51 0 0.0 0.0 0.00 0.01 0.00 78 1015.7
20260506121052 51 0 0.0 0.0 0.00 0.01 0.00 77 1015.7
20260506120549 51 0 0.0 0.0 0.00 0.01 0.00 77 1015.7
20260506120053 52 0 0.0 0.0 0.00 0.01 0.00 76 1015.7
20260506115553 52 0 0.0 0.0 0.00 0.01 0.00 75 1015.6
20260506115052 52 0 0.0 1.0 0.00 0.01 0.00 75 1015.5
20260506114553 52 0 0.0 1.0 0.00 0.01 0.00 75 1015.5
20260506114049 53 0 0.0 1.0 0.00 0.01 0.00 74 1015.4
20260506113552 53 0 0.0 3.0 0.00 0.01 0.00 74 1015.5
20260506113103 52 244 0.0 3.0 0.00 0.01 0.00 75 1015.4
20260506112549 52 244 1.0 3.0 0.00 0.01 0.00 76 1015.4
20260506112049 52 0 0.0 0.0 0.00 0.01 0.00 77 1015.3
20260506111557 52 0 0.0 0.0 0.00 0.01 0.00 77 1015.3
20260506111049 52 0 0.0 0.0 0.00 0.01 0.00 77 1015.2
20260506110549 52 0 0.0 0.0 0.00 0.01 0.00 76 1015.2
20260506110100 52 0 0.0 0.0 0.00 0.01 0.00 76 1015.0
20260506105549 53 0 0.0 0.0 0.00 0.03 0.00 75 1015.1
20260506105049 53 0 0.0 0.0 0.00 0.03 0.00 74 1015.1
20260506104615 53 0 0.0 0.0 0.00 0.03 0.00 72 1015.0
20260506104053 54 0 0.0 0.0 0.00 0.03 0.00 71 1015.0
20260506103554 54 0 0.0 0.0 0.00 0.03 0.00 70 1015.0
20260506103054 54 0 0.0 0.0 0.00 0.03 0.00 70 1014.9
20260506102549 55 0 0.0 0.0 0.00 0.03 0.00 69 1014.8
20260506102051 55 0 0.0 0.0 0.00 0.03 0.00 68 1014.9
20260506101603 55 0 0.0 0.0 0.00 0.03 0.00 67 1014.7
20260506101049 56 0 0.0 0.0 0.00 0.03 0.00 66 1014.6
20260506100555 56 0 0.0 0.0 0.00 0.03 0.00 64 1014.6
20260506100101 57 0 0.0 0.0 0.00 0.03 0.00 61 1014.5
20260506095554 58 0 0.0 3.0 0.00 0.04 0.00 60 1014.4
20260506095051 58 0 0.0 4.0 0.00 0.04 0.00 60 1014.4
20260506094600 58 0 2.0 4.0 0.00 0.04 0.00 60 1014.4
20260506094052 58 244 2.0 4.0 0.00 0.04 0.00 60 1014.5
20260506093552 57 244 0.0 4.0 0.00 0.04 0.00 60 1014.4
20260506093106 58 244 1.0 3.0 0.00 0.04 0.00 61 1014.5
20260506092553 58 244 1.0 3.0 0.00 0.04 0.00 61 1014.4
20260506092049 58 244 1.0 3.0 0.00 0.04 0.00 61 1014.4
20260506091555 58 244 2.0 4.0 0.00 0.04 0.00 60 1014.5
20260506091052 58 244 2.0 4.0 0.00 0.04 0.00 60 1014.4
20260506090555 58 244 1.0 4.0 0.00 0.04 0.00 60 1014.4
20260506085552 59 0 0.0 4.0 0.00 0.08 0.00 58 1014.5
20260506085053 59 244 1.0 4.0 0.00 0.08 0.00 58 1014.6
20260506084610 59 244 2.0 4.0 0.00 0.08 0.00 59 1014.6
20260506084050 58 244 2.0 4.0 0.00 0.08 0.00 59 1014.6
20260506083552 58 244 2.0 5.0 0.00 0.08 0.00 61 1014.5
20260506083107 58 244 2.0 5.0 0.00 0.08 0.00 61 1014.5
20260506082551 58 0 0.0 3.0 0.00 0.08 0.00 63 1014.6
20260506082055 58 0 0.0 1.0 0.00 0.08 0.00 63 1014.7
20260506081609 57 0 0.0 1.0 0.00 0.08 0.00 64 1014.8
20260506081050 58 0 0.0 3.0 0.00 0.08 0.00 64 1014.8
20260506080550 58 0 0.0 3.0 0.00 0.08 0.00 63 1014.8
20260506073110 60 244 1.0 4.0 0.00 0.15 0.00 58 1014.9
20260506072553 60 244 2.0 4.0 0.00 0.15 0.00 58 1014.9
20260506072057 60 244 1.0 4.0 0.00 0.15 0.00 58 1014.9
20260506071614 60 244 1.0 4.0 0.00 0.15 0.00 58 1014.8
20260506071056 60 244 2.0 4.0 0.00 0.15 0.00 58 1014.7
20260506070552 60 244 1.0 3.0 0.00 0.15 0.00 57 1014.6
20260506070104 60 244 0.0 3.0 0.00 0.15 0.00 57 1014.7
20260506062052 61 244 1.0 5.0 0.00 0.21 0.15 58 1014.6
20260506061557 61 244 1.0 8.0 0.00 0.21 0.15 57 1014.7
20260506061053 62 244 3.0 8.0 0.00 0.21 0.15 57 1014.7
20260506060554 62 244 2.0 7.0 0.00 0.21 0.15 57 1014.6
20260506051053 63 273 0.0 4.0 0.00 0.25 0.15 54 1014.4
20260506050552 63 273 2.0 4.0 0.00 0.25 0.15 53 1014.4
20260506045051 63 274 0.0 2.0 0.00 0.29 0.15 53 1014.1
20260506044559 64 274 0.0 3.0 0.00 0.29 0.15 52 1014.0
20260506044052 64 0 0.0 3.0 0.00 0.29 0.15 51 1014.0
20260506043553 64 0 1.0 7.0 0.00 0.29 0.15 50 1013.9
20260506043053 64 0 1.0 7.0 0.00 0.29 0.15 50 1014.0
20260506042553 64 267 1.0 9.0 0.00 0.29 0.15 50 1014.0
20260506042052 65 266 2.0 9.0 0.00 0.29 0.15 49 1013.9
20260506041605 65 285 3.0 11.0 0.00 0.29 0.15 48 1013.8
20260506041052 65 261 5.0 11.0 0.00 0.29 0.15 47 1013.7
20260506040550 65 252 3.0 9.0 0.00 0.29 0.15 47 1013.5
20260506040100 65 235 4.0 9.0 0.00 0.29 0.15 47 1013.3
20260506035552 65 239 4.0 13.0 0.00 0.30 0.15 46 1013.2
20260506035052 66 221 4.0 13.0 0.00 0.30 0.15 46 1013.1
20260506034556 66 225 4.0 14.0 0.00 0.30 0.15 46 1013.0
20260506034050 66 230 4.0 14.0 0.00 0.30 0.15 45 1013.0
20260506033554 66 220 6.0 14.0 0.00 0.30 0.15 45 1013.0
20260506033110 66 230 4.0 10.0 0.00 0.30 0.15 45 1013.0
20260506032552 66 232 4.0 10.0 0.00 0.30 0.15 44 1013.0
20260506032126 66 221 4.0 13.0 0.00 0.30 0.15 43 1012.8
20260506031557 67 215 5.0 14.0 0.00 0.30 0.15 42 1012.7
20260506031056 67 227 6.0 14.0 0.00 0.30 0.15 41 1012.7
20260506030557 67 237 5.0 11.0 0.00 0.30 0.15 40 1012.7
20260506030055 67 229 5.0 14.0 0.00 0.30 0.15 37 1012.5
20260506025552 67 247 7.0 14.0 0.00 0.31 0.15 36 1012.4
20260506025052 67 234 6.0 13.0 0.00 0.31 0.15 36 1012.4
20260506024552 67 226 5.0 11.0 0.00 0.31 0.15 36 1012.4
20260506024052 67 223 4.0 13.0 0.00 0.31 0.15 36 1012.2
20260506023554 67 246 6.0 15.0 0.00 0.31 0.15 35 1012.1
20260506023052 68 239 6.0 15.0 0.00 0.31 0.15 35 1012.0
20260506022552 68 245 9.0 15.0 0.00 0.31 0.15 34 1011.9
20260506022049 68 234 6.0 14.0 0.00 0.31 0.15 33 1011.8
20260506021554 68 238 6.0 15.0 0.00 0.31 0.15 32 1011.6
20260506021049 68 221 9.0 15.0 0.00 0.31 0.15 31 1011.5
20260506020549 68 246 7.0 16.0 0.00 0.31 0.15 32 1011.4
20260506020052 69 232 8.0 16.0 0.00 0.31 0.15 31 1011.4
20260506015556 69 244 9.0 17.0 0.00 0.34 0.15 31 1011.3
20260506015053 69 217 8.0 17.0 0.00 0.34 0.15 30 1011.3
20260506014555 69 253 7.0 18.0 0.00 0.34 0.15 29 1011.3
20260506014051 70 257 9.0 18.0 0.00 0.34 0.15 30 1011.2
20260506013549 70 219 9.0 19.0 0.00 0.34 0.15 30 1011.3
20260506013055 70 239 9.0 19.0 0.00 0.34 0.15 30 1011.3
20260506012553 70 246 10.0 19.0 0.00 0.34 0.15 30 1011.2
20260506012052 71 244 11.0 19.0 0.00 0.34 0.15 31 1011.3
20260506011553 71 254 7.0 21.0 0.00 0.34 0.15 32 1011.3
20260506011052 71 215 9.0 21.0 0.00 0.34 0.15 32 1011.2
20260506010555 71 263 9.0 17.0 0.00 0.34 0.15 33 1011.2
20260506010055 71 237 9.0 16.0 0.00 0.34 0.15 33 1011.1
20260506005552 71 275 8.0 19.0 0.00 0.35 0.15 32 1011.1
20260506005052 72 262 10.0 19.0 0.00 0.35 0.15 31 1011.1
20260506004557 72 238 9.0 19.0 0.00 0.35 0.15 31 1011.1
20260506004052 72 231 7.0 16.0 0.00 0.35 0.15 31 1010.9
20260506003553 71 230 8.0 16.0 0.00 0.35 0.15 31 1010.9
20260506003053 72 252 6.0 20.0 0.00 0.35 0.15 30 1010.9
20260506002553 72 235 9.0 20.0 0.00 0.35 0.15 29 1010.9
20260506002053 73 236 12.0 20.0 0.00 0.35 0.15 28 1010.8
20260506001609 72 269 5.0 19.0 0.00 0.35 0.15 28 1010.8
20260506001053 73 269 6.0 19.0 0.00 0.35 0.15 29 1010.8
20260506000553 73 217 11.0 19.0 0.00 0.35 0.15 27 1010.8
20260505235552 75 249 1.0 10.0 0.00 0.35 0.15 27 1010.6
20260505235052 75 202 3.0 15.0 0.00 0.35 0.15 28 1010.6
20260505234600 74 230 4.0 15.0 0.00 0.35 0.15 29 1010.6
20260505234056 74 234 2.0 15.0 0.00 0.35 0.15 28 1010.6
20260505233551 74 273 5.0 13.0 0.00 0.35 0.15 26 1010.3
20260505233101 74 213 2.0 16.0 0.00 0.35 0.15 26 1010.4
20260505232552 75 161 5.0 16.0 0.00 0.35 0.15 26 1010.4
20260505232053 76 243 4.0 12.0 0.00 0.35 0.15 25 1010.3
20260505231602 76 0 3.0 12.0 0.00 0.35 0.15 25 1010.3
20260505231051 75 188 2.0 12.0 0.00 0.35 0.15 26 1010.1
20260505230552 75 0 2.0 12.0 0.00 0.35 0.15 28 1010.4
20260505230117 74 220 4.0 11.0 0.00 0.35 0.15 27 1010.4
20260505225553 75 198 2.0 9.0 0.00 0.35 0.15 27 1010.6
20260505225055 75 122 4.0 12.0 0.00 0.35 0.15 26 1010.6
20260505224559 75 198 1.0 16.0 0.00 0.35 0.15 25 1010.6
20260505224053 75 243 5.0 16.0 0.00 0.35 0.15 26 1010.7
20260505223552 76 223 2.0 12.0 0.00 0.35 0.15 26 1010.5
20260505223100 75 184 2.0 12.0 0.00 0.35 0.15 29 1010.7
20260505222552 75 232 6.0 12.0 0.00 0.35 0.15 29 1010.8
20260505222053 75 277 6.0 12.0 0.00 0.35 0.15 30 1010.8
20260505221555 74 248 5.0 12.0 0.00 0.35 0.15 32 1010.8
20260505221052 72 229 3.0 11.0 0.00 0.35 0.15 33 1010.9
20260505220550 73 277 5.0 11.0 0.00 0.35 0.15 32 1010.9
20260505220055 73 219 2.0 11.0 0.00 0.35 0.15 32 1011.1
20260505215549 73 201 2.0 12.0 0.00 0.35 0.15 32 1011.1
20260505215053 74 186 5.0 13.0 0.00 0.35 0.15 31 1011.1
20260505214605 74 352 7.0 13.0 0.00 0.35 0.15 31 1011.2
20260505214050 73 230 4.0 19.0 0.00 0.35 0.15 31 1011.2
20260505213552 74 226 6.0 19.0 0.00 0.35 0.15 31 1011.4
20260505213059 75 161 3.0 13.0 0.00 0.35 0.15 32 1011.5
20260505212552 74 0 5.0 11.0 0.00 0.35 0.15 35 1011.4
20260505212052 73 225 3.0 12.0 0.00 0.35 0.15 33 1011.5
20260505211607 72 217 6.0 13.0 0.00 0.35 0.15 34 1011.5
20260505211052 72 242 3.0 13.0 0.00 0.35 0.15 37 1011.5
20260505210552 72 261 6.0 16.0 0.00 0.35 0.15 39 1011.5
20260505210104 72 319 5.0 16.0 0.00 0.35 0.15 35 1011.5
20260505205552 73 227 4.0 12.0 0.00 0.35 0.15 32 1011.5
20260505205052 74 161 6.0 12.0 0.00 0.35 0.15 32 1011.6